Voltar ao catálogo

RADUGA 1-4

AtivoMilitarGEO
NORAD 25642·PAYLOAD·🇷🇺 Russia

Lançado Feb 28, 1999 de Baikonur Cosmodrome

Loading…

TLE

AtualizadoSource: Space-Track

Época: Sep 12, 2026, 22:32 UTC

1 25642U 99010A   26255.93925700 -.00000107  00000-0  00000+0 0  9991
2 25642  15.6595   0.8745 0005757 277.0004 127.7213  1.00189735100839

Acompanhe RADUGA 1-4 em tempo real com AllMySat

Download on the App Store